Home   Weather   Brăila   Past weeks

Flag for Romania Past Weather in Brăila, Romania — Yesterday and Last 2 Weeks

Now
12 °F

Fog.


Feels Like: 12 °F
Forecast: 13 / 27 °F
Wind: No wind

Location: Galati

Current Time: Jan 20, 2017 at 10:14:36 am

Latest Report: Jan 20, 2017 at 9:00 am


Visibility: 1 mi

Pressure: 30.65 "Hg

Humidity: 93%

Dew Point: 10 °F

Location of BrăilaLocation

Past Weather in Brăila — Graph

°F

Brăila Temperature Yesterday

Maximum temperature yesterday: 22 °F (at 4:00 pm)
Minimum temperature yesterday: 17 °F (at 11:00 pm)
Average temperature yesterday: 20 °F

High & Low Weather Summary for the Past Weeks

 TemperatureHumidityPressure
High44 °F (Jan 14, 12:00 pm)99% (Jan 16, 2:00 pm)30.72 "Hg (Jan 16, 2:00 pm)
Low5 °F (Jan 10, 12:00 am)60% (Jan 13, 3:00 pm)29.54 "Hg (Jan 14, 8:00 am)
Average21 °F85%30.15 "Hg
* Reported Jan 5 8:00 am — Jan 20 8:00 am, Brăila, Weather by CustomWeather, © 2017

Note: Actual official high and low records may vary slightly from our data, if they occured in-between our weather recording intervals... More about our weather records

Advertising

Brăila Weather History for the Previous 24 Hours

Scroll right to see more
 ConditionsComfort  
Time TempWeatherWind HumidityBarometerVisibility
8:00 am
Fri, Jan 20
10 °FFog.1 mph92%30.65 "Hg1 mi
7:00 am10 °FFog.1 mph93%30.65 "Hg2 mi
6:00 am9 °FFog.1 mph92%30.65 "Hg2 mi
5:00 am12 °FFog.3 mph93%30.66 "Hg2 mi
4:00 am11 °FFog.2 mph93%30.67 "Hg2 mi
3:00 am12 °FFog.3 mph92%30.67 "Hg2 mi
2:00 am13 °FClear.2 mph91%30.67 "Hg6 mi
1:00 am15 °FClear.2 mph92%30.67 "Hg6 mi
12:00 am16 °FClear.3 mph91%30.68 "Hg6 mi
11:00 pm
Thu, Jan 19
17 °FClear.3 mph90%30.68 "Hg6 mi
10:00 pm17 °FClear.3 mph89%30.68 "Hg6 mi
9:00 pm18 °FClear.2 mph87%30.68 "Hg6 mi
8:00 pm19 °FClear.2 mph87%30.68 "Hg6 mi
7:00 pm20 °FClear.2 mph87%30.68 "Hg6 mi
6:00 pm22 °FOvercast.3 mph83%30.68 "Hg6 mi
5:00 pm22 °FOvercast.3 mph82%30.68 "Hg6 mi
4:00 pm22 °FOvercast.3 mph82%30.68 "Hg6 mi
3:00 pm22 °FOvercast.3 mph82%30.68 "Hg6 mi
2:00 pm22 °FOvercast.5 mph83%30.69 "Hg6 mi
1:00 pm21 °FOvercast.3 mph85%30.70 "Hg6 mi
12:00 pm21 °FOvercast.3 mph85%30.71 "Hg6 mi
11:00 am21 °FOvercast.5 mph85%30.72 "Hg6 mi
10:00 am20 °FOvercast.3 mph87%30.72 "Hg6 mi
Weather by CustomWeather, © 2017

See weather overviewHow to use our weather pages